Regional Weather Roundup
Issued by NWS

Home | Current Version | Previous Version | Graphics & Text | Print | Product List | Glossary On
Versions: 1 2 3 4 5 6 7 8 9 10 11 12 13 14 15 16 17 18 19 20 21 22 23 24 25 26 27 28 29 30 31 32 33 34 35 36 37 38 39 40 41 42 43 44 45 46 47 48 49 50
000
ASUS43 KDTX 020510
RWRMI
MICHIGAN HOURLY REGIONAL WEATHER ROUNDUP
NATIONAL WEATHER SERVICE DETROIT/PONTIAC MI
1200 AM EST MON MAR 02 2015

NOTE: "FAIR" INDICATES FEW OR NO CLOUDS BELOW 12,000 FEET WITH NO
SIGNIFICANT WEATHER AND/OR OBSTRUCTION TO VISIBILITY.

MIZ047>049-052>055-059>063-066>070-074>076-081>083-020600-
SOUTHEAST LOWER MICHIGAN

CITY           SKY/WX    TMP DP  RH WIND       PRES   REMARKS
ADRIAN         CLOUDY    23  16  74 NW9       30.25F
ALMA           FLURRIES  23  20  88 SW9       30.18F
ANN ARBOR      CLOUDY    23  16  74 W12       30.23S
BAD AXE        FLURRIES  22  17  81 W13       30.15F
DETROIT CITY   CLOUDY    25  15  66 W7        30.21F
DETROIT        CLOUDY    22  16  78 SW9       30.24S
FLINT          CLOUDY    25  17  72 W8        30.20F
GROSSE ILE     CLOUDY    19  16  86 SW6       30.23S
HILLSDALE      CLOUDY    23  18  80 W12G17    30.22S
HOWELL         FLURRIES  22  17  81 W10       30.20F

CITY           SKY/WX    TMP DP  RH WIND       PRES   REMARKS
JACKSON        CLOUDY    23  16  74 W10       30.22S
LAMBERTVILLE   CLOUDY    23  18  80 SW6       30.26F
LANSING        LGT SNOW  23  17  78 W15       30.22S
LAPEER         NOT AVBL
MASON          FLURRIES  23  17  77 W8        30.22S
MONROE         CLOUDY    21  18  86 SW7       30.24S
MT. CLEMENS    CLOUDY    23  15  70 SW6       30.18F
PONTIAC        CLOUDY    22  16  78 W16       30.19R
PORT HOPE        N/A     24  15  68 W9G18     30.13F
PORT HURON     CLOUDY    21  14  73 W6        30.19S
TRI CITIES     CLOUDY    24  18  77 SW12      30.17F
YPSILANTI      CLOUDY    26  16  65 W12       30.23S
$$
MIZ043>046-050>051-056>058-064>065-071>073-077>080-020600-
SOUTHWEST LOWER MICHIGAN

CITY           SKY/WX    TMP DP  RH WIND       PRES   REMARKS
BATTLE CREEK   CLOUDY    24  17  74 W13       30.24S
BENTON HARBOR  CLOUDY    23  19  85 W18       30.30S
BIG RAPIDS     PTCLDY    22  14  71 NW8G22    30.17R
COLDWATER      CLOUDY    23  17  80 W15G21    30.26R
HOLLAND        FLURRIES  27  19  72 W16G24    30.26S
GRAND RAPIDS   LGT SNOW  24  18  77 W17       30.22S
KALAMAZOO      CLOUDY    23  17  78 W12       30.26S
MARSHALL       CLOUDY    23  17  77 W16       30.23S
MUSKEGON       CLOUDY    27  17  66 NW10      30.24R
$$
MIZ016>042-020600-
NORTHERN LOWER MICHIGAN

CITY           SKY/WX    TMP DP  RH WIND       PRES   REMARKS
ALPENA         CLOUDY    22  14  71 SW8       30.09S
BEAVER ISLAND  MOCLDY    21  12  70 W10       30.12S
BELLAIRE       MOCLDY    22  13  68 CALM      30.15S
CADILLAC       FLURRIES  19  11  72 W10G26    30.12R
CHARLEVOIX     PTCLDY    20  12  73 W14       30.16R
FRANKFORT      MOCLDY    24  15  68 W15       30.18S
GAYLORD        LGT SNOW  19  14  81 W9G21     30.06S
GRAYLING       LGT SNOW  21  16  83 W10       30.10S
HARBOR SPRINGS CLOUDY    22  14  71 W7        30.11R
HOUGHTON LAKE  LGT SNOW  21  17  84 W16       30.11R FOG
MANISTEE       MOCLDY    25  10  54 NW16G24   30.20S
OSCODA         CLOUDY    18  13  82 SW7       30.12S
PELLSTON       CLOUDY    22  13  68 W16       30.10S
TRAVERSE CITY  PTCLDY    20  11  68 W9        30.16R
$$
MIZ007>008-015-020600-
EASTERN UPPER MICHIGAN

CITY           SKY/WX    TMP DP  RH WIND       PRES   REMARKS
KINROSS        CLOUDY    19  18  93 W8        30.05R
MACKINAC ISLAN CLOUDY    22  16  75 W9G16     30.07R
NEWBERRY       CLOUDY    17  14  85 SW9       30.06S
S. S. MARIE    MOCLDY    19  14  81 W7        30.05S
$$
MIZ004>006-011>014-085-020600-
CENTRAL UPPER MICHIGAN

CITY           SKY/WX    TMP DP  RH WIND       PRES   REMARKS
MANISTIQUE     MOCLDY    19  10  65 W5        30.11S
ESCANABA       PTCLDY    18   9  68 W8        30.16S
MENOMINEE      CLEAR     18   7  62 W8        30.18R
SAWYER-GWINN   FLURRIES  15   8  72 W6        30.08S
$$
MIZ001>003-009>011-084-020600-
WESTERN UPPER MICHIGAN

CITY           SKY/WX    TMP DP  RH WIND       PRES   REMARKS
IRON MOUNTAIN  PTCLDY    16   3  56 W12       30.12R
HOUGHTON       PTCLDY    16   8  71 NW23G32   30.10R WCI  -2
COPPER HARBOR    N/A     19   9  65 N17G24    30.10R
IRONWOOD       CLOUDY    19  10  68 NW17      30.16R
$$

ABBREVIATIONS USED IN REMARKS
   TC - TEMPERATURE IN CELSIUS
  WCI - WIND CHILL INDEX
   HX - HEAT INDEX
  VSB - VISIBILITY




USA.gov is the U.S. government's official web portal to all federal, state and local government web resources and services.